{"data":{"norad_id":52713,"epoch":"2026-09-20T22:36:55.838880Z","epoch_age_seconds":93275,"freshness":"FRESH","line1":"1 52713U 22054A   26263.94231295  .00001644  00000+0  65954-4 0  9992","line2":"2 52713  97.6384 215.6864 0002283  97.4491 262.7006 15.26492418241347","mean_motion":15.26492418,"eccentricity":0.0002283,"inclination_deg":97.6384,"raan_deg":215.6864,"arg_perigee_deg":97.4491,"mean_anomaly_deg":262.7006,"bstar":6.5954e-5,"rev_number":24134,"period_min":94.333911064339,"perigee_km":484.7404884739,"apogee_km":487.87479389706,"semimajor_km":6864.4446411855,"source":"CELESTRAK","updated_at":"2026-09-21T09:00:08.714117Z"}}